This demonstration page uses our WeatherBlox Daily Observations layout. Learn more.

Left ArrowRight Arrow

Hourly Observations for January 5, 2020

Temp ( °F °C ) Dew Point ( °F °C ) Humidity (%) Winds ( mph kmh ) Pressure ( in mb ) Visibility ( mi km ) Precip ( " mm )
12:53 am 00:53 Cloudy 33 0.6 27 -2.8 78 78 WNW 9 15 30.18 1022 10 16 0.00 0.00
1:53 am 01:53 Cloudy 33 0.6 28 -2.2 82 82 WNW 6 9 30.19 1022 10 16 0.00 0.00
2:53 am 02:53 Cloudy 34 1.1 26 -3.3 73 73 W 9 15 30.20 1023 10 16 0.00 0.00
3:53 am 03:53 Cloudy 34 1.1 25 -3.9 70 70 W 8 13 30.22 1023 10 16 0.00 0.00
4:53 am 04:53 Cloudy 33 0.6 25 -3.9 72 72 WNW 9 15 30.22 1023 10 16 0.00 0.00
5:53 am 05:53 Cloudy 32 0 22 -5.6 66 66 W 7 11 30.23 1024 10 16 0.00 0.00
6:53 am 06:53 Cloudy 32 0 23 -5 69 69 WSW 5 7 30.25 1025 10 16 0.00 0.00
7:53 am 07:53 Mostly Cloudy 30 -1.1 23 -5 75 75 WSW 5 7 30.25 1025 10 16 0.00 0.00
8:02 am 08:02 Partly Cloudy 30 -1.1 23 -5 75 75 WSW 6 9 30.27 1025 10 16 0.00 0.00
8:53 am 08:53 Sunny 31 -0.6 24 -4.4 76 76 W 3 6 30.28 1025 10 16 0.00 0.00
9:53 am 09:53 Sunny 33 0.6 25 -3.9 72 72 VRB 7 11 30.29 1026 10 16 0.00 0.00
10:53 am 10:53 Mostly Sunny 35 1.7 26 -3.3 70 70 SW 5 7 30.25 1024 10 16 0.00 0.00
11:11 am 11:11 Mostly Cloudy 36 2.2 27 -2.8 70 70 VRB 7 11 30.25 1024 10 16 0.00 0.00
11:18 am 11:18 Partly Cloudy 36 2.2 27 -2.8 70 70 SSW 8 13 30.24 1024 10 16 0.00 0.00
11:53 am 11:53 Sunny 38 3.3 27 -2.8 65 65 VRB 7 11 30.21 1023 10 16 0.00 0.00
12:53 pm 12:53 Sunny 41 5 28 -2.2 60 60 SSW 9 15 30.14 1021 10 16 0.00 0.00
1:53 pm 13:53 Sunny 43 6.1 27 -2.8 53 53 SSW 14 22 30.08 1019 10 16 0.00 0.00
2:53 pm 14:53 Sunny 45 7.2 28 -2.2 52 52 SSW 8 13 30.03 1017 10 16 0.00 0.00
3:53 pm 15:53 Sunny 46 7.8 27 -2.8 47 47 SSW 9 15 30.01 1016 10 16 0.00 0.00
4:53 pm 16:53 Sunny 46 7.8 27 -2.8 47 47 SSW 9 15 29.98 1015 10 16 0.00 0.00
5:53 pm 17:53 Clear 44 6.7 28 -2.2 53 53 SW 6 9 30.00 1016 10 16 0.00 0.00
6:53 pm 18:53 Clear 43 6.1 29 -1.7 58 58 SW 5 7 30.01 1016 10 16 0.00 0.00
7:53 pm 19:53 Partly Cloudy 42 5.6 29 -1.7 60 60 W 6 9 30.02 1017 10 16 0.00 0.00
8:53 pm 20:53 Cloudy 43 6.1 30 -1.1 60 60 WSW 7 11 30.04 1017 10 16 0.00 0.00
9:53 pm 21:53 Cloudy 45 7.2 31 -0.6 58 58 WSW 8 13 30.03 1017 10 16 0.00 0.00
10:53 pm 22:53 Cloudy 44 6.7 32 0 63 63 W 9 15 30.04 1017 10 16 0.00 0.00
11:53 pm 23:53 Cloudy 43 6.1 31 -0.6 63 63 W 10 17 30.05 1018 10 16 0.00 0.00

Powered by AerisWeather